| time (UTC) | temp F | wind direction | speed knots | gust knots | rain 1hr in | rain 24hr in | rain mn in | humidity % | barometer mb |
| 20260506024539 | 72 | 60 | 0.0 | 2.6 | 0.00 | 0.00 | 0.00 | 47 | 1018.5 |
| 20260506023015 | 73 | 64 | 0.0 | 0.9 | 0.00 | 0.00 | 0.00 | 45 | 1018.4 |
| 20260506021514 | 74 | 39 | 0.0 | 2.6 | 0.00 | 0.00 | 0.00 | 43 | 1018.2 |
| 20260506020013 | 75 | 76 | 0.0 | 1.7 | 0.00 | 0.00 | 0.00 | 41 | 1018.0 |
| 20260506014513 | 76 | 87 | 0.0 | 0.0 | 0.00 | 0.00 | 0.00 | 38 | 1017.8 |
| 20260506013018 | 78 | 322 | 0.0 | 0.0 | 0.00 | 0.00 | 0.00 | 36 | 1017.7 |
| 20260506011513 | 80 | 304 | 0.0 | 0.0 | 0.00 | 0.00 | 0.00 | 35 | 1017.6 |
| 20260506010012 | 80 | 32 | 0.0 | 0.0 | 0.00 | 0.00 | 0.00 | 34 | 1017.7 |
| 20260506004510 | 80 | 300 | 0.0 | 0.0 | 0.00 | 0.00 | 0.00 | 33 | 1017.6 |
| 20260506003011 | 80 | 326 | 0.0 | 0.9 | 0.00 | 0.00 | 0.00 | 33 | 1017.5 |
| 20260506001509 | 80 | 31 | 0.0 | 0.9 | 0.00 | 0.00 | 0.00 | 33 | 1017.5 |
| 20260506000009 | 80 | 104 | 0.0 | 1.7 | 0.00 | 0.00 | 0.00 | 33 | 1017.5 |
| 20260505234509 | 81 | 293 | 0.0 | 0.0 | 0.00 | 0.00 | 0.00 | 36 | 1017.5 |
| 20260505233005 | 80 | 270 | 0.0 | 3.5 | 0.00 | 0.00 | 0.00 | 34 | 1017.6 |
| 20260505231504 | 79 | 79 | 0.0 | 0.9 | 0.00 | 0.00 | 0.00 | 36 | 1017.7 |
| 20260505230005 | 79 | 271 | 0.0 | 0.9 | 0.00 | 0.00 | 0.00 | 38 | 1017.8 |
| 20260505224559 | 78 | 304 | 0.0 | 2.6 | 0.00 | 0.00 | 0.00 | 38 | 1017.9 |
| 20260505223108 | 78 | 58 | 0.0 | 1.7 | 0.00 | 0.00 | 0.00 | 39 | 1018.2 |
| 20260505221553 | 77 | 328 | 0.0 | 0.9 | 0.00 | 0.00 | 0.00 | 42 | 1018.4 |
| 20260505220051 | 76 | 23 | 0.0 | 1.7 | 0.00 | 0.00 | 0.00 | 43 | 1018.6 |
| 20260505214547 | 75 | 256 | 0.0 | 0.9 | 0.00 | 0.00 | 0.00 | 44 | 1018.6 |
| 20260505213054 | 75 | 280 | 0.0 | 2.6 | 0.00 | 0.00 | 0.00 | 45 | 1018.9 |
| 20260505211539 | 74 | 274 | 0.0 | 0.9 | 0.00 | 0.00 | 0.00 | 46 | 1019.1 |
| 20260505210036 | 73 | 146 | 0.0 | 0.0 | 0.00 | 0.00 | 0.00 | 53 | 1019.3 |
| 20260505204531 | 71 | 153 | 0.0 | 0.0 | 0.00 | 0.00 | 0.00 | 55 | 1019.5 |
| 20260505203042 | 70 | 271 | 0.0 | 0.9 | 0.00 | 0.00 | 0.00 | 59 | 1019.7 |
| 20260505201527 | 69 | 125 | 0.0 | 0.0 | 0.00 | 0.00 | 0.00 | 60 | 1019.9 |
| 20260505200033 | 69 | 262 | 0.0 | 0.0 | 0.00 | 0.00 | 0.00 | 62 | 1020.1 |
| 20260505194523 | 68 | 3 | 0.0 | 0.9 | 0.00 | 0.00 | 0.00 | 66 | 1020.2 |
| 20260505193022 | 67 | 257 | 0.0 | 0.0 | 0.00 | 0.00 | 0.00 | 61 | 1020.4 |
| 20260505191518 | 66 | 316 | 0.0 | 0.0 | 0.00 | 0.00 | 0.00 | 67 | 1020.5 |
| 20260505190018 | 65 | 293 | 0.0 | 0.9 | 0.00 | 0.00 | 0.00 | 63 | 1020.6 |
| 20260505184517 | 63 | 89 | 0.0 | 0.0 | 0.00 | 0.00 | 0.00 | 66 | 1020.7 |
| 20260505183009 | 63 | 287 | 0.0 | 0.0 | 0.00 | 0.00 | 0.00 | 69 | 1020.8 |
| 20260505181508 | 62 | 319 | 0.0 | 0.0 | 0.00 | 0.00 | 0.00 | 68 | 1021.0 |
| 20260505180006 | 62 | 254 | 0.0 | 0.0 | 0.00 | 0.00 | 0.00 | 70 | 1021.0 |
| 20260505174505 | 62 | 152 | 0.0 | 0.9 | 0.00 | 0.00 | 0.00 | 70 | 1021.1 |
| 20260505173004 | 59 | 335 | 0.0 | 0.0 | 0.00 | 0.00 | 0.00 | 73 | 1021.1 |
| 20260505171558 | 59 | 278 | 0.0 | 0.0 | 0.00 | 0.00 | 0.00 | 74 | 1021.1 |
| 20260505170057 | 58 | 219 | 0.0 | 0.0 | 0.00 | 0.00 | 0.00 | 76 | 1021.0 |
| 20260505164601 | 58 | 265 | 0.0 | 0.0 | 0.00 | 0.00 | 0.00 | 77 | 1021.1 |
| 20260505163056 | 57 | 278 | 0.0 | 0.0 | 0.00 | 0.00 | 0.00 | 80 | 1021.1 |
| 20260505161548 | 57 | 328 | 0.0 | 0.0 | 0.00 | 0.00 | 0.00 | 79 | 1021.2 |
| 20260505153057 | 56 | 252 | 0.0 | 0.0 | 0.00 | 0.00 | 0.00 | 81 | 1021.1 |
| 20260505151550 | 56 | 283 | 0.0 | 0.0 | 0.00 | 0.00 | 0.00 | 81 | 1021.1 |
| 20260505124530 | 55 | 14 | 0.0 | 0.0 | 0.00 | 0.00 | 0.00 | 83 | 1020.0 |
| 20260505123028 | 55 | 14 | 0.0 | 0.0 | 0.00 | 0.00 | 0.00 | 83 | 1019.8 |
| 20260505121530 | 55 | 14 | 0.0 | 0.0 | 0.00 | 0.00 | 0.00 | 84 | 1019.8 |
| 20260505120026 | 55 | 14 | 0.0 | 0.0 | 0.00 | 0.00 | 0.00 | 85 | 1019.7 |
| 20260505114533 | 55 | 14 | 0.0 | 0.0 | 0.00 | 0.00 | 0.00 | 84 | 1019.5 |
| 20260505113024 | 55 | 14 | 0.0 | 0.0 | 0.00 | 0.00 | 0.00 | 84 | 1019.5 |
| 20260505111532 | 55 | 14 | 0.0 | 0.0 | 0.00 | 0.00 | 0.00 | 84 | 1019.5 |
| 20260505101520 | 55 | 14 | 0.0 | 0.0 | 0.00 | 0.00 | 0.00 | 85 | 1019.3 |
| 20260505100026 | 55 | 14 | 0.0 | 0.0 | 0.00 | 0.00 | 0.00 | 84 | 1019.3 |
| 20260505094519 | 56 | 14 | 0.0 | 0.0 | 0.00 | 0.00 | 0.00 | 84 | 1019.3 |
| 20260505093018 | 56 | 14 | 0.0 | 0.0 | 0.00 | 0.00 | 0.00 | 83 | 1019.5 |
| 20260505091516 | 56 | 14 | 0.0 | 0.0 | 0.00 | 0.00 | 0.00 | 83 | 1019.5 |
| 20260505090019 | 56 | 14 | 0.0 | 0.0 | 0.00 | 0.00 | 0.00 | 83 | 1019.5 |
| 20260505084515 | 56 | 14 | 0.0 | 0.0 | 0.00 | 0.00 | 0.00 | 83 | 1019.6 |
| 20260505083022 | 56 | 14 | 0.0 | 0.0 | 0.00 | 0.00 | 0.00 | 83 | 1019.7 |
| 20260505081513 | 56 | 14 | 0.0 | 0.0 | 0.00 | 0.00 | 0.00 | 83 | 1019.7 |
| 20260505080012 | 56 | 14 | 0.0 | 0.0 | 0.00 | 0.00 | 0.00 | 83 | 1019.8 |
| 20260505074512 | 56 | 14 | 0.0 | 0.0 | 0.00 | 0.00 | 0.00 | 84 | 1019.8 |
| 20260505073011 | 56 | 14 | 0.0 | 0.0 | 0.00 | 0.00 | 0.00 | 83 | 1019.7 |
| 20260505071519 | 55 | 14 | 0.0 | 0.0 | 0.00 | 0.00 | 0.00 | 84 | 1019.7 |
| 20260505070005 | 55 | 14 | 0.0 | 0.0 | 0.00 | 0.00 | 0.00 | 86 | 1019.6 |
| 20260505064504 | 54 | 14 | 0.0 | 0.0 | 0.00 | 0.00 | 0.00 | 87 | 1019.6 |
| 20260505063003 | 53 | 14 | 0.0 | 0.0 | 0.00 | 0.00 | 0.00 | 88 | 1019.5 |
| 20260505061505 | 53 | 14 | 0.0 | 0.0 | 0.00 | 0.00 | 0.00 | 87 | 1019.4 |
| 20260505060001 | 53 | 14 | 0.0 | 0.0 | 0.00 | 0.00 | 0.00 | 86 | 1019.3 |
| 20260505054626 | 54 | 268 | 0.0 | 0.0 | 0.00 | 0.00 | 0.00 | 85 | 1019.2 |
| 20260505053059 | 55 | 268 | 0.0 | 0.0 | 0.00 | 0.00 | 0.00 | 84 | 1019.1 |
| 20260505051559 | 55 | 268 | 0.0 | 0.0 | 0.00 | 0.00 | 0.00 | 82 | 1019.0 |
| 20260505041555 | 58 | 268 | 0.0 | 0.0 | 0.00 | 0.00 | 0.00 | 77 | 1017.9 |
| 20260505040059 | 59 | 124 | 0.0 | 0.0 | 0.00 | 0.00 | 0.00 | 77 | 1017.6 |
| 20260505034554 | 60 | 100 | 0.0 | 0.0 | 0.00 | 0.00 | 0.00 | 74 | 1017.3 |
| 20260505033055 | 61 | 100 | 0.0 | 0.0 | 0.00 | 0.00 | 0.00 | 72 | 1017.1 |
| 20260505031556 | 63 | 120 | 0.0 | 0.0 | 0.00 | 0.00 | 0.00 | 70 | 1016.7 |
| 20260505030053 | 64 | 270 | 0.0 | 0.0 | 0.00 | 0.00 | 0.00 | 68 | 1016.4 |